SCP
0 0 0 0 0 0 0 0 0 0 0 0 0 0 0 0 0 0 0 0 0 0 0 0 0 0 0 0 0 0 0 0 0 0 0 0 0 0
0 0 0 0 0 0 0 0 0 0 0 0 0 0 0 0 0 0 0 0 0 0 0 0 0 0 0 0 0 0 0 0 0 0 0 0 0 0
0 0 0 0 0 0 0 0 0 0 0 0 0 0 0 0 0 0 0 0 0 0 0 0 0 0 0 0 0 0 0 0 0 0 0 0 0 0
0 0 0 0 0 0 0 0 0 0 0 0 0 0 0 0 0 0 0 0 0 0 0 0 0 0 0 0 0 0 0 0 0 0 0 0 0 0
0 0 0 0 0 0 0 0 0 0 0 0 0 0 0 0 0 0 0 0 0 0 0 0 0 0 0 0 0 0 0 0 0 0 0 0 0 0
0 0 0 0 0 0 0 0 0 0 0 0 0 0 0 0 0 0 0 0 0 0 0 0 0 0 0 0 0 0 0 0 0 0 0 0 0 0
0 0 0 0 0 0 0 0 0 0 0 0 0 0 0 0 0 0 0 0 0 0 0 0 0 0 0 0 0 0 0 0 0 0 0 0 0 0
0 0 0 0 0 0 0 0 0 0 0 0 0 0 0 0 0 0 0 0 0 0 0 0 0 0 0 0 0 0 0 0 0 0 0 0 0 0
0 0 0 0 0 0 0 0 0 0 0 0 0 0 0 0 0 0 0 0 0 0 0 0 0 0 0 0 0 0 0 0 0 0 0 0 0 0
0 0 0 0 0 0 0 0 0 0 0 0 0 0 0 0 0 0 0 0 0 0 0 0 0 0 0 0 0 0 0 0 0 0 0 0 0 0
0 0 0 0 0 0 0 0 0 0 0 0 0 0 0 0 0 0 0 0 0 0 0 0 0 0 0 0 0 0 0 0 0 0 0 0 0 0
0 0 0 0 0 0 0 0 0 0 0 0 0 0 0 0 0 0 0 0 0 0 0 0 0 0 0 0 0 0 0 0 0 0 0 0 0 0
0 0 0 0 0 0 0 0 0 0 0 0 0 0 0 0 0 0 0 0 0 0 0 0 0 0 0 0 0 0 0 0 0 0 0 0 0 0
0 0 0 0 0 0 0 0 0 0 0 0 0 0 0 0 0 0 0 0 0 0 0 0 0 0 0 0 0 0 0 0 0 0 0 0 0 0
0 0 0 0 0 0 0 0 0 0 0 0 0 0 0 0 0 0 0 0 0 0 0 0 0 0 0 0 0 0 0 0 0 0 0 0 0 0
0 0 0 0 0 0 0 0 0 0 0 0 0 0 0 0 0 0 0 0 0 0 0 0 0 0 0 0 0 0 0 0 0 0 0 0 0 0
0 0 0 0 0 0 0 0 0 0 0 0 0 0 0 0 0 0 0 0 0 0 0 0 0 0 0 0 0 0 0 0 0 0 0 0 0 0
0 0 0 0 0 0 0 0 0 0 0 0 0 0 0 0 0 0 0 0 0 0 0 0 0 0 0 0 0 0 0 0 0 0 0 0 0 0
0 0 0 0 0 0 0 0 0 0 0 0 0 0 0 0 0 0 0 0 0 0 0 0 0 0 0 0 0 0 0 0 0 0 0 0 0 0
0 0 0 0 0 0 0 0 0 0 0 0 0 0 0 0 0 0 0 0 0 0 0 0 0 0 0 0 0 0 0 0 0 0 0 0 0 0
0 0 0 0 0 0 0 0 0 0 0 0 0 0 0 0 0 0 0 0 0 0 0 0 0 0 0 0 0 0 0 0 0 0 0 0 0 0
0 0 0 0 0 0 0 0 0 0 0 0 0 0 0 0 0 0 0 0 0 0 0 0 0 0 0 0 0 0 0 0 0 0 0 0 0 0
0 0 0 0 0 0 0 0 0 0 0 0 0 0 0 0 0 0 0 0 0 0 0 0 0 0 0 0 0 0 0 0 0 0 0 0 0 0
Wind_Speed
3 3 2 2 2 2 2 2 3 4 4 3 3 3 4 4 6 6 6 8 10 10 10 10 10 10 10 10 10 10 10 10 9 9 9 10 9 9
2 3 3 2 2 2 2 3 4 4 4 4 4 5 5 5 6 6 6 8 8 9 9 9 9 9 10 10 9 9 9 10 9 9 10 10 9 9
2 3 3 3 2 2 2 3 3 4 5 5 4 5 6 6 5 5 6 5 5 7 9 9 9 9 9 9 9 9 9 10 10 10 10 10 10 10
3 3 3 2 3 3 3 3 3 3 4 6 5 4 5 5 5 6 5 5 5 7 8 9 8 8 9 8 9 9 10 10 9 9 10 10 10 10
3 3 3 3 3 3 3 3 3 3 3 4 4 4 4 4 5 5 5 5 5 5 7 7 7 8 8 8 8 9 9 9 9 9 10 10 10 11
3 3 3 3 4 4 3 4 3 3 3 3 3 3 4 4 4 4 5 4 4 5 5 6 7 7 7 7 7 8 8 9 9 9 9 9 10 10
3 3 3 3 4 4 3 4 3 3 3 3 3 3 3 3 4 4 5 5 5 3 4 5 5 4 5 5 5 7 8 9 9 9 9 10 10 10
3 3 3 3 3 4 5 5 5 4 4 3 3 4 4 4 4 4 4 4 4 3 5 5 4 4 4 3 6 8 8 9 9 9 10 10 10 10
3 3 3 2 3 3 4 4 4 5 5 4 5 5 5 4 4 4 4 4 5 4 4 4 4 4 4 4 6 7 8 9 10 10 10 10 10 10
3 3 4 3 3 4 3 4 4 4 5 4 5 6 5 4 4 5 5 4 4 3 3 3 4 4 4 4 5 7 8 9 10 9 10 10 10 10
3 3 4 4 4 4 4 4 4 4 4 6 7 6 6 5 3 2 3 3 3 3 2 2 3 4 4 4 4 6 8 9 10 9 9 10 10 9
3 3 4 4 4 4 4 4 5 5 5 5 5 4 3 2 3 3 3 3 3 2 1 2 2 3 3 3 3 4 5 7 9 9 9 9 10 6
3 3 3 4 5 5 5 4 5 6 5 4 4 3 2 2 2 2 3 3 3 3 1 2 2 2 3 3 4 4 4 5 5 5 7 9 10 8
3 3 3 4 5 5 4 5 5 5 3 3 3 3 2 2 2 3 3 3 3 3 3 2 2 3 3 3 3 4 4 4 4 5 5 7 7 8
3 4 5 5 5 4 4 4 3 2 2 3 3 3 3 3 2 2 3 3 3 2 1 2 3 3 3 3 3 3 4 4 4 4 5 5 5 4
3 3 4 4 4 4 4 3 2 2 3 3 3 3 2 2 2 2 2 2 2 2 2 3 3 3 3 3 3 4 4 3 4 5 5 5 4 3
3 3 2 2 2 2 2 2 2 2 2 2 2 2 2 2 2 2 2 2 2 2 3 3 3 3 3 3 3 3 4 4 4 4 4 4 4 3
3 2 3 3 3 3 3 2 2 2 2 2 2 2 2 2 2 2 2 2 2 2 3 3 3 2 2 1 2 3 3 4 4 4 4 4 4 3
3 2 3 3 3 3 3 3 3 3 3 2 2 2 2 2 2 2 2 2 2 2 2 2 2 2 2 3 2 2 3 4 4 4 3 3 4 4
2 3 3 3 3 3 3 3 3 3 3 3 3 2 2 2 2 2 2 2 2 2 2 2 2 2 2 3 3 3 4 3 3 3 3 4 4 5
3 3 3 3 3 3 3 3 3 3 3 3 3 3 2 2 2 2 2 2 2 2 2 2 3 4 3 2 2 2 3 3 4 3 3 3 3 3
3 3 3 3 3 3 3 3 3 3 3 3 3 3 2 2 2 2 2 2 2 2 2 2 2 2 2 2 2 3 3 4 4 4 3 2 2 2
3 4 4 3 3 3 3 3 4 3 3 3 3 3 2 2 2 2 2 2 1 1 1 1 2 2 2 2 2 2 3 4 3 4 3 4 4 5
Wind_Direction
244 247 251 254 258 260 254 252 265 282 285 282 299 299 310 310 317 312 314 328 325 326 330 333 333 331 332 333 332 332 332 332 328 325 323 322 321 321
255 245 247 253 255 258 255 254 258 265 275 289 298 308 308 307 312 310 311 320 319 325 327 329 330 330 331 332 335 339 339 336 330 326 323 323 323 322
270 256 254 260 263 260 261 253 254 261 273 291 298 308 306 306 311 312 312 311 314 323 325 327 328 329 331 334 340 341 338 336 330 326 325 325 324 323
267 268 269 270 266 268 265 265 261 264 271 285 301 306 306 305 308 310 313 309 312 322 323 325 326 328 330 332 336 340 339 335 328 325 324 324 324 324
267 267 272 273 278 275 273 272 273 277 276 278 292 307 306 307 312 312 311 312 318 322 322 325 325 324 324 328 334 339 339 337 331 329 328 327 326 325
269 272 273 272 276 283 277 275 277 282 280 276 287 299 307 313 312 316 314 320 320 319 323 321 321 320 322 324 331 337 338 336 334 333 331 331 330 327
269 269 274 283 290 291 289 286 283 277 278 282 287 296 304 313 306 306 303 314 313 317 321 318 319 318 319 323 331 339 338 336 334 333 333 335 335 331
273 275 278 271 283 291 293 297 294 276 273 276 280 284 290 296 301 297 302 309 307 316 312 309 314 311 317 321 332 334 334 334 333 331 330 330 330 328
274 278 281 282 287 281 286 289 289 289 280 274 271 278 284 282 281 282 286 297 294 303 301 292 302 301 308 317 323 325 329 331 332 330 329 329 329 327
272 275 271 274 281 294 289 282 284 287 285 280 280 283 285 281 268 273 280 293 300 295 296 281 298 301 306 301 310 316 320 325 327 327 327 329 330 326
274 273 276 274 287 300 290 287 290 296 298 294 295 291 294 294 288 279 274 281 296 299 293 282 296 307 297 288 309 318 320 323 327 327 328 331 331 324
274 270 272 282 292 294 286 285 289 300 307 304 296 294 290 277 268 257 256 268 292 280 263 289 295 314 299 294 316 318 315 318 325 329 331 335 336 326
279 275 271 279 285 287 290 286 293 303 296 294 294 299 303 296 287 296 285 274 271 272 272 283 286 289 283 297 302 309 316 323 327 330 333 336 336 331
277 279 284 288 288 288 286 299 304 304 292 292 291 295 305 314 316 315 317 319 306 285 269 271 269 273 290 297 299 308 311 318 323 323 325 329 328 327
282 290 295 298 296 280 280 292 288 285 290 289 290 295 304 306 311 320 335 345 336 321 291 290 285 278 276 286 301 306 308 311 320 321 324 324 322 322
281 285 286 285 285 286 283 274 274 278 283 283 293 301 310 312 307 315 319 328 329 333 332 327 314 293 287 290 289 297 302 300 309 318 321 317 316 316
294 283 278 278 279 283 290 291 288 283 284 295 293 300 306 308 312 318 317 316 314 320 332 339 331 312 291 287 291 296 303 308 310 319 322 322 321 323
272 267 270 273 277 285 290 297 296 290 290 291 286 286 290 292 300 308 310 306 311 317 326 332 335 332 313 280 266 297 309 312 319 320 319 318 321 332
259 267 270 273 277 280 281 283 288 293 290 282 280 281 287 289 287 288 289 298 311 316 321 327 330 332 328 326 314 293 310 318 322 323 322 317 312 319
263 268 272 275 276 276 277 281 286 290 291 288 284 282 281 278 276 275 275 289 299 308 311 314 316 314 302 298 302 305 309 306 313 320 325 326 319 313
268 268 269 268 271 276 277 278 279 278 281 285 277 273 272 271 271 270 272 285 294 298 295 298 311 319 312 299 299 313 325 322 316 312 320 324 329 340
278 275 274 271 270 271 275 274 277 276 276 275 277 275 272 266 266 264 263 265 274 290 298 313 326 323 322 316 321 325 332 339 337 325 313 307 323 329
286 283 279 276 272 272 272 272 270 272 273 272 273 273 272 270 268 260 258 263 278 295 313 324 332 338 335 329 329 332 334 340 344 355 359 349 319 303